Regional Weather Roundup
Issued by NWS

Home | Current Version | Previous Version | Text Only | Print | Product List | Glossary Off
Versions: 1 2 3 4 5 6 7 8 9 10 11 12 13 14 15 16 17 18 19 20 21 22 23 24 25 26 27 28 29 30 31 32 33 34 35 36 37 38 39 40 41 42 43 44 45 46 47 48 49 50

000
ASUS44 KMEG 271900
RWRTN
TENNESSEE HOURLY STATE WEATHER ROUNDUP
NATIONAL WEATHER SERVICE MEMPHIS TN
100 PM CST SAT DEC 27 2014

TNZ002-004-019-021-049-052-054-088>092-272000-
WEST TENNESSEE

CITY           SKY/WX    TMP DP  RH WIND       PRES   REMARKS
MEMPHIS INTL   LGT RAIN  55  52  89 S5        30.08F
NWS MEMPHIS      N/A     53 N/A N/A MISG        N/A
JACKSON        CLOUDY    52  49  89 S3        30.12R
DYERSBURG      CLOUDY    50  39  66 CALM      30.12F
UNION CITY     CLOUDY    46  46 100 S3        30.10F
PARIS          CLOUDY    48  46  93 CALM      30.12F
LEXINGTON      CLOUDY    48  46  93 S3        30.12F
SAVANNAH       CLOUDY    48  48 100 SE3       30.12F
$$

TNZ008-025-027-028-033-062-065-066-272000-
NORTH MIDDLE TENNESSEE

CITY           SKY/WX    TMP DP  RH WIND       PRES   REMARKS
NASHVILLE      RAIN      52  44  74 S17       30.16F
CLARKSVILLE    LGT RAIN  51  47  86 CALM      30.13F
COOKEVILLE     SUNNY     57  36  44 S8        30.15F
CROSSVILLE     CLOUDY    54  32  43 S10G18    30.18F
$$

TNZ061-075-076-078-094-096-097-272000-
SOUTH MIDDLE TENNESSEE

CITY           SKY/WX    TMP DP  RH WIND       PRES   REMARKS
FAYETTEVILLE   CLOUDY    48  39  71 MISG      30.18F
TULLAHOMA      CLOUDY    48  39  71 S3        30.17F
WINCHESTER     CLOUDY    52  41  66 SE5       30.18F
SHELBYVILLE    CLOUDY    52  46  82 SW7       30.19F
$$

TNZ017-018-042-046-047-272000-
NORTHEAST TENNESSEE

CITY           SKY/WX    TMP DP  RH WIND       PRES   REMARKS
TRI CITIES     CLOUDY    56  29  35 VRB3      30.23F
ELIZABETHTON   CLOUDY    57  30  35 S6        30.21F
$$

TNZ012-013-036-069-073-074-272000-
CENTRAL EAST TENNESSEE

CITY           SKY/WX    TMP DP  RH WIND       PRES   REMARKS
KNOXVILLE      CLOUDY    51  38  60 CALM      30.22
OAK RIDGE      PTSUNNY   53  37  54 VRB6      30.23F
GATLINBURG     CLOUDY    50  36  57 CALM      30.22F
$$

TNZ083-085-099-272000-
SOUTHEAST TENNESSEE

CITY           SKY/WX    TMP DP  RH WIND       PRES   REMARKS
CHATTANOOGA    CLOUDY    54  40  59 S6        30.22F
$$

SKY/WX REPORTED AS FAIR MEANS FEW OR NO CLOUDS BELOW
12 THOUSAND FEET.



USA.gov is the U.S. government's official web portal to all federal, state and local government web resources and services.